www.pogodaiklimat.ru

Погода и климат >> Архив погоды >> Индонезия >> Lhokseumawe


ПОГОДА в Lhokseumawe

  • Прогноз погоды в Lhokseumawe
  • Монитор погоды в Lhokseumawe
  • Климат города

АРХИВ ПОГОДЫ в Lhokseumawe

Время (UTC), дата Ветер
(напр.,м/с)
 
Видим.   Явления Облачность Т
(С)
Тd
(С)
f
(%)
Тe
(С)
Тes
(С)
Комфортность P
(гПа)
Po
(гПа)
Тmin
(С)
Tmax
(С)
R
(мм)
R24
(мм)
S
(см)
09 12.11 С 1 7000 м 10/5 480 м
[Cu Sc As op Ci fib]
+28.6 +24.8 80 +41 +43 опасность
перегрева
1006.5 1003.1
12 12.11 штиль 0 6000 м 9/3 500 м
[Sc As op Ci fib]
+27.0 +24.9 88 +39 +39 очень
душно
1008.1 1004.6 +29.0
15 12.11 штиль 0 6000 м 9/3 500 м
[Sc As op Ci fib]
+26.2 +25.3 95 +38 +38 очень
душно
1010.5 1007.0
18 12.11 штиль 0 6000 м 4/1 500 м
[Sc As trans Ci fib]
+25.7 +24.9 95 +36 +36 очень
душно
1009.2 1005.7
21 12.11 штиль 0 6000 м 4/1 500 м
[Sc As trans Ci fib]
+24.6 +24.1 97 +34 +34 очень
душно
1007.5 1004.0
00 13.11 ЮЗ 1 8000 м 4/1 500 м
[Sc Ac As Ci fib]
+23.7 +22.9 95 +31 +32 очень
душно
1008.3 1004.8 +23.5 0.0
03 13.11 В 2 8000 м 9/4 450 м
[Cu med, cong Ac As Ci sp]
+29.0 +25.4 81 +43 +47 опасность
перегрева
1010.0 1006.6
06 13.11 СВ 2 8000 м 5/4 500 м
[Cu med, cong Ac As Ci fib]
+30.2 +24.1 70 +42 +52 опасность
перегрева
1007.5 1004.1
09 13.11 СВ 3 7000 м гроза без осадков 9/5 450 м
[Cb cap As op Ci fib]
+28.8 +24.7 79 +41 +43 опасность
перегрева
1005.9 1002.4
12 13.11 ЮЗ 2 6000 м слабый ливневой дождь, в посл. час гроза 10/4 450 м
[Cb cap As op]
+25.4 +24.2 93 +35 +35 очень
душно
1007.9 1004.5 +30.0 0.4
15 13.11 штиль 0 6000 м {дождь} 9/4 450 м
[Cb cap As op Ci fib]
+24.6 +23.6 94 +33 +33 очень
душно
1009.6 1006.1 0.0
18 13.11 штиль 0 6000 м зарница {гроза, дождь} 10/4 450 м
[Cb cap As op]
+24.0 +23.0 94 +32 +32 очень
душно
1008.8 1005.3 0.4
21 13.11 ЮЗ 2 6000 м зарница 10/4 450 м
[Cb cap As op]
+23.6 +22.6 94 +31 +31 очень
душно
1007.6 1004.1
00 14.11 Ю 1 5000 м гроза без осадков {дождь} 10/5 450 м
[Cb cap As op]
+23.6 +22.6 94 +31 +31 очень
душно
1008.9 1005.4 +23.6 0.4
03 14.11 С 1 7000 м {гроза} 8/4 450 м
[Cu med, cong As trans Ci fib]
+27.5 +24.1 82 +38 +44 очень
душно
1010.5 1007.0
06 14.11 С 3 7000 м {гроза} 9/3 450 м
[Cu med, cong Ac trans Ci fib]
+29.0 +24.7 78 +41 +48 опасность
перегрева
1008.5 1005.0
09 14.11 СВ 2 6000 м гроза без осадков 10/4 450 м
[Cb cap As op]
+28.5 +25.6 84 +42 +43 опасность
перегрева
1006.8 1003.4
12 14.11 ЮЗ 1 5000 м в посл. час дождь {гроза} 10/4 480 м
[Cu med, cong As op]
+27.1 +26.2 95 +41 +41 опасность
перегрева
1008.7 1005.2 +30.2 0.1
15 14.11 ЮЗ 1 6000 м 10/4 480 м
[Cu med, cong As op]
+26.0 +25.6 98 +38 +38 очень
душно
1011.4 1007.9
18 14.11 штиль 0 6000 м 9/4 450 м
[Cb cap As op Ci fib]
+24.4 +23.4 94 +33 +33 очень
душно
1010.0 1006.5
21 14.11 ЮЗ 2 6000 м 9/3 480 м
[Cu med, cong As op Ci fib]
+23.8 +22.8 94 +31 +31 очень
душно
1008.8 1005.3
00 15.11 ЮЗ 2 7000 м {гроза} 10/4 450 м
[Cb cap Ac As Ci fib]
+23.6 +22.6 94 +31 +31 очень
душно
1009.7 1006.3 +23.6 0.1
03 15.11 штиль 0 8000 м слабый дождь 10/8 450 м
[Cb cap Ac As Cc]
+27.0 +23.9 83 +37 +39 очень
душно
1012.1 1008.6 0.0
06 15.11 СВ 1 6000 м слабый дождь {гроза} 10/8 450 м
[Cb cap As op]
+28.6 +24.1 77 +40 +41 очень
душно
1010.3 1006.8 0.0
09 15.11 СВ 1 6000 м в посл. час дождь 10/5 450 м
[Cb cap As op]
+27.6 +24.8 85 +39 +40 очень
душно
1007.7 1004.2 0.1
12 15.11 штиль 0 6000 м {дождь} 8/4 450 м
[Cb cap As op Ci fib]
+26.8 +24.7 88 +38 +38 очень
душно
1009.5 1006.1 +29.0 0.1
15 15.11 штиль 0 6000 м 8/4 450 м
[Cb cap As op Ci fib]
+25.6 +24.4 93 +36 +36 очень
душно
1011.3 1007.8
18 15.11 штиль 0 6000 м зарница 8/4 450 м
[Cb cap As op Ci fib]
+25.0 +24.0 94 +34 +34 очень
душно
1010.2 1006.8
21 15.11 Ю 1 6000 м в посл. час гроза 8/4 500 м
[Cu med, cong As op Ci fib]
+24.4 +23.7 96 +33 +33 очень
душно
1008.9 1005.4
00 16.11 Ю 1 6000 м гроза без осадков 8/4 500 м
[Cb cap As op Ci fib]
+23.9 +23.4 97 +32 +32 очень
душно
1010.2 1006.7 +23.6 0.1
03 16.11 ЮВ 5 6000 м {гроза} 8/4 450 м
[Cu med, cong As op Ci fib]
+28.6 +23.6 74 +39 +41 очень
душно
1011.6 1008.0
06 16.11 СВ 3 6000 м {гроза} 8/5 450 м
[Cu med, cong Ac As Ci fib]
+29.2 +25.0 78 +42 +48 опасность
перегрева
1008.7 1005.2
09 16.11 СВ 2 6000 м гроза без осадков 8/4 450 м
[Cb cap As op Ci sp]
+28.8 +24.7 79 +41 +44 опасность
перегрева
1006.4 1002.9
12 16.11 СВ 2 5000 м гроза без осадков 9/6 450 м
[Cb cap As op Ci fib]
+27.3 +24.5 85 +39 +39 очень
душно
1009.5 1006.0 +30.8
15 16.11 ЮЗ 4 3000 м гроза, ливневой дождь 9/8 450 м
[Cb cap As op Ci fib]
+23.9 +23.2 96 +32 +32 очень
душно
1012.4 1008.9 19
18 16.11 ЮЗ 2 6000 м в посл. час дождь {гроза} 10/4 450 м
[Cb cap As op]
+23.7 +23.0 96 +31 +31 очень
душно
1011.0 1007.5 2
21 16.11 штиль 0 6000 м 9/4 450 м
[Cb cap As op Ci fib]
+23.7 +23.3 98 +32 +32 очень
душно
1008.9 1005.5
00 17.11 штиль 0 7000 м 8/3 500 м
[Sc As op Ci fib]
+23.4 +23.0 98 +33 +33 очень
душно
1010.8 1007.3 +23.2 22
03 17.11 штиль 0 7000 м 9/3 480 м
[Cu med, cong Ac As Ci fib]
+28.0 +24.5 81 +39 +45 очень
душно
1012.2 1008.7
06 17.11 СВ 2 8000 м 9/4 480 м
[Cu med, cong As op Ci fib]
+29.4 +23.6 71 +40 +47 очень
душно
1010.1 1006.6
09 17.11 СВ 2 6000 м 9/4 500 м
[Cu med, cong As op Ci fib]
+29.0 +23.6 73 +40 +42 очень
душно
1007.2 1003.8
12 17.11 СВ 2 6000 м 9/4 500 м
[Cu med, cong As op Ci fib]
+27.2 +24.2 84 +38 +38 очень
душно
1008.9 1005.4
15 17.11 СВ 2 6000 м 9/4 500 м
[Cu med, cong As op Ci fib]
+27.0 +24.0 84 +37 +37 очень
душно
1011.9 1004.4
18 17.11 ЮЗ 3 4000 м гроза, ливневой дождь 10/5 450 м
[Cb cap As op Ci fib]
+24.9 +23.9 94 +34 +34 очень
душно
1011.2 1007.7 0.4
21 17.11 штиль 0 4000 м гроза без осадков 10/5 450 м
[Cb cap As op Ci fib]
+25.1 +24.4 96 +35 +35 очень
душно
1010.5 1007.0 0.3
00 18.11 штиль 0 5000 м дымка 8/4 450 м
[Cb calv Ac As Ci fib]
+24.6 +23.9 96 +34 +34 очень
душно
1011.7 1008.2 +23.4 0.7
03 18.11 Ю 1 7000 м 8/1 480 м
[Cu med, cong As trans Ci fib]
+27.8 +24.3 81 +39 +46 очень
душно
1013.8 1010.3
06 18.11 С 3 7000 м 8/3 480 м
[Cu med, cong As trans Ci fib]
+29.5 +24.7 75 +42 +48 опасность
перегрева
1011.3 1007.8
09 18.11 СЗ 2 6000 м 9/3 480 м
[Cu med, cong As op Ci fib]
+28.8 +24.7 79 +41 +44 опасность
перегрева
1008.9 1005.4
12 18.11 штиль 0 6000 м гроза без осадков 8/4 450 м
[Cb cap As op Ci fib]
+28.2 +25.3 84 +41 +41 опасность
перегрева
1010.4 1006.9 +30.4
15 18.11 Ю 1 6000 м гроза без осадков 9/4 450 м
[Cb cap As op Ci fib]
+26.8 +25.0 90 +39 +39 очень
душно
1013.3 1009.7 0.0
18 18.11 ЮВ 2 6000 м гроза, ливневой дождь 10/4 450 м
[Cb cap As op]
+25.0 +23.5 91 +34 +34 очень
душно
1013.6 1010.8 24
21 18.11 В 2 6000 м гроза, ливневой дождь 10/8 450 м
[Cb cap As op]
+24.6 +23.0 91 +33 +33 очень
душно
1011.6 1008.1 22
00 19.11 В 2 6000 м в посл. час дождь 10/8 450 м
[Cb cap As op]
+23.0 +22.1 95 +31 +31 очень
душно
1012.4 1008.9 +22.1 9
03 19.11 штиль 0 8000 м {дождь} 10/4 480 м
[Cu Sc Ac As Ci fib]
+26.2 +23.2 84 +35 +40 очень
душно
1015.7 1002.2 0.1
06 19.11 СЗ 2 7000 м {дождь} 9/4 480 м
[Cu med, cong As op Ci fib]
+28.6 +25.4 83 +42 +48 опасность
перегрева
1013.6 1010.1 0.1

 

Местоположение метеостанции Lhokseumawe (Индонезия): широта 5.23 долгота 97.20 высота над уровнем моря 87 м.

В архиве по умолчанию представлена погода в Lhokseumawe за последнюю неделю. Архивные данные за месяц целиком и за предыдущие месяцы, начиная с января 2011 года, Вы можете получить, выбрав интересующий диапазон дат из раскрывающегося списка и нажав кнопку "Ввод!".


*Определитесь, кто Вы:
робот инопланетянин человек

Внимание! Время в таблицах - всемирное. Для получения местного времени необходимо прибавить поправку, которая в Lhokseumawe равна 7 ч.

Смотрите также архив погоды в соседних городах и на ближайших метеорологических станциях:

Погода в Meulaboh (Индонезия) (162 км)
Погода в Banda Aceh (Индонезия) (200 км)
Погода в Sabang (Индонезия) (220 км)
Погода в Belawan (Индонезия) (230 км)
Погода в Medan Polonia Int Airport (Индонезия) (247 км)
Погода в Langkawi (Малайзия) (306 км)
Погода в Phuket (Таиланд) (323 км)
Погода в Ko Lanta (Таиланд) (328 км)
Погода в Penang (Малайзия) (339 км)
Погода в Phuket Airport (Таиланд) (345 км)

Пояснения к столбцам:

Ветер - указаны скорость ветра в м/с - средняя за 10 мин, порывы в срок и между сроками (в фигурных скобках) и направление, откуда дует ветер: С - северный, СВ - северо-восточный, В - восточный, ЮВ - юго-восточный, Ю - южный, ЮЗ - юго-западный, З - западный, СЗ - северо-западный.
Видимость - горизонтальная дальность видимости в метрах или километрах. При видимости от 1 до 10 км при отсутствии осадков обычно наблюдается дымка, при ухудшении видимости до 1 км и менее - туман. В сухую погоду видимость может ухудшаться дымом, пылью или мглою.
Явления - указаны атмосферные явления, наблюдавшиеся в срок или в последний час перед сроком; фигурными скобками обозначены явления, наблюдавшиеся между сроками (за 1-3 часа до срока); квадратными скобками обозначены град или гололедные отложения с указанием их диаметра в мм.
Облачность - указаны через наклонную черту общая и нижняя облачность в баллах и высота нижней границы облаков в метрах; квадратными скобками обозначены формы облаков: Ci - перистые, Cs - перисто-слоистые, Cc - перисто-кучевые, Ac - высококучевые, As - высокослоистые, Sc - слоисто-кучевые, Ns - слоисто-дождевые, Cu - кучевые, Cb - кучево-дождевые. Подробнее классификацию облаков см. в Атласе облаков (PDF).
T - Температура воздуха - температура, измеренная на высоте 2 м над землей.
Td - Температура точки росы - температура, при понижении до которой содержащийся в воздухе водяной пар достигнет насыщения.
f - Относительная влажность воздуха - влажноcть воздуха, измеренная на высоте 2 м над землей.
Te - Эффективная температура - температура, которую ощущает одетый по сезону человек в тени. Характеристика душности погоды. При расчете учитывается влияние влажности воздуха и скорости ветра на теплоощущения человека.
Tes - Эффективная температура на солнце - температура, которую ощущает человек, с поправкой на солнечный нагрев. Характеристика знойности погоды. Зависит от высоты солнца над горизонтом, облачности и скорости ветра. Ночью, в пасмурную погоду, а также при ветре 12 м/с и более поправка равна нулю.
P - Атмосферное давление - приведенное к уровню моря атмосферное давление.
Po - Атмосферное давление - измеренное на уровне метеостанции атмосферное давление.
Tmin - Минимальная температура - минимум температуры воздуха на высоте 2 м над землей.
Tmax - Максимальная температура - максимум температуры воздуха на высоте 2 м над землей.
R - Количество осадков - Количество выпавших осадков за период времени, мм. При наведении курсора мыши на число - период времени, за который выпало указанное количество осадков.
R24 - Количество осадков - Количество выпавших осадков за 24 часа, мм.
S - Снежный покров - Высота снежного покрова, см. При наведении курсора мыши на число - состояние снежного покрова и степень покрытия местности в баллах.